• în România
  • Lista ţărilor
  • Pe 7 zile
  • Temperatura apei
  • Hartă satelitară
  • Meteo pe hartă
  • Widget-uri
  • user-avatar
    Intrare

    Meteo pe oră la Algiers

    Astăzi, 26 Iulie, Miercuri

    Timp Temperatura Precipitaţii Vânt Presiune Umiditate
    00:00 +26°C° 0 mm 3 m/s 747 mmHg 79%
    01:00 +26°C° 0 mm 3 m/s 747 mmHg 80%
    02:00 +25°C° 0 mm 3 m/s 747 mmHg 80%
    03:00 +25°C° 0 mm 3 m/s 747 mmHg 81%
    04:00 +25°C° 0 mm 3 m/s 747 mmHg 78%
    05:00 +26°C° 0 mm 3 m/s 747 mmHg 75%
    06:00 +27°C° 0 mm 3 m/s 747 mmHg 66%
    07:00 +29°C° 0 mm 3 m/s 747 mmHg 57%
    08:00 +30°C° 0 mm 3 m/s 747 mmHg 49%
    09:00 +33°C° 0 mm 4 m/s 747 mmHg 40%
    10:00 +34°C° 0 mm 4 m/s 747 mmHg 37%
    11:00 +35°C° 0 mm 4 m/s 747 mmHg 35%
    12:00 +36°C° 0 mm 4 m/s 747 mmHg 32%
    13:00 +36°C° 0 mm 5 m/s 747 mmHg 32%
    14:00 +36°C° 0 mm 5 m/s 747 mmHg 32%
    15:00 +36°C° 0 mm 5 m/s 747 mmHg 32%
    16:00 +35°C° 0 mm 5 m/s 747 mmHg 35%
    17:00 +34°C° 0 mm 4 m/s 747 mmHg 37%
    18:00 +33°C° 0 mm 4 m/s 747 mmHg 40%
    19:00 +30°C° 0 mm 3 m/s 748 mmHg 44%
    20:00 +29°C° 0 mm 3 m/s 748 mmHg 48%
    21:00 +28°C° 0 mm 2 m/s 748 mmHg 52%
    22:00 +28°C° 0 mm 2 m/s 748 mmHg 53%
    23:00 +27°C° 0 mm 1 m/s 749 mmHg 54%

    Mâine, 27 Iulie, Joi

    Timp Temperatura Precipitaţii Vânt Presiune Umiditate
    00:00 +27°C° 0 mm 1 m/s 749 mmHg 54%
    01:00 +26°C° 0 mm 1 m/s 749 mmHg 55%
    02:00 +26°C° 0 mm 1 m/s 748 mmHg 55%
    03:00 +26°C° 0 mm 2 m/s 748 mmHg 56%
    04:00 +26°C° 0 mm 2 m/s 748 mmHg 55%
    05:00 +27°C° 0 mm 2 m/s 749 mmHg 53%
    06:00 +27°C° 0 mm 2 m/s 749 mmHg 52%
    07:00 +29°C° 0 mm 2 m/s 749 mmHg 46%
    08:00 +31°C° 0 mm 2 m/s 749 mmHg 39%
    09:00 +34°C° 0 mm 2 m/s 749 mmHg 32%
    10:00 +35°C° 0 mm 2 m/s 749 mmHg 29%
    11:00 +36°C° 0 mm 3 m/s 749 mmHg 26%
    12:00 +37°C° 0 mm 3 m/s 749 mmHg 23%
    13:00 +38°C° 0 mm 4 m/s 749 mmHg 24%
    14:00 +38°C° 0 mm 4 m/s 748 mmHg 24%
    15:00 +38°C° 0 mm 4 m/s 748 mmHg 24%
    16:00 +37°C° 0 mm 4 m/s 748 mmHg 27%
    17:00 +36°C° 0 mm 4 m/s 748 mmHg 30%
    18:00 +35°C° 0 mm 4 m/s 748 mmHg 32%
    19:00 +34°C° 0 mm 3 m/s 748 mmHg 35%
    20:00 +33°C° 0 mm 3 m/s 748 mmHg 38%
    21:00 +30°C° 0 mm 3 m/s 749 mmHg 42%
    22:00 +30°C° 0 mm 3 m/s 748 mmHg 41%
    23:00 +30°C° 0 mm 3 m/s 748 mmHg 40%

    Poimâine, 28 Iulie, Vineri

    Timp Temperatura Precipitaţii Vânt Presiune Umiditate
    00:00 +30°C° 0 mm 2 m/s 748 mmHg 39%
    01:00 +30°C° 0 mm 2 m/s 748 mmHg 38%
    02:00 +30°C° 0 mm 2 m/s 747 mmHg 37%
    03:00 +30°C° 0 mm 2 m/s 747 mmHg 37%
    04:00 +31°C° 0 mm 2 m/s 748 mmHg 36%
    05:00 +31°C° 0 mm 2 m/s 748 mmHg 35%
    06:00 +32°C° 0 mm 2 m/s 748 mmHg 34%
    07:00 +35°C° 0 mm 2 m/s 748 mmHg 30%
    08:00 +37°C° 0 mm 3 m/s 749 mmHg 25%
    09:00 +39°C° 0 mm 3 m/s 749 mmHg 21%
    10:00 +42°C° 0 mm 3 m/s 749 mmHg 19%
    11:00 +43°C° 0 mm 4 m/s 748 mmHg 17%
    12:00 +45°C° 0 mm 5 m/s 748 mmHg 15%
    13:00 +45°C° 0 mm 5 m/s 748 mmHg 15%
    14:00 +45°C° 0 mm 5 m/s 747 mmHg 16%
    15:00 +45°C° 0 mm 5 m/s 747 mmHg 16%
    16:00 +43°C° 0 mm 5 m/s 747 mmHg 17%
    17:00 +42°C° 0 mm 5 m/s 747 mmHg 19%
    18:00 +41°C° 0 mm 5 m/s 747 mmHg 20%
    19:00 +39°C° 0 mm 5 m/s 747 mmHg 23%
    20:00 +36°C° 0 mm 4 m/s 748 mmHg 25%
    21:00 +35°C° 0 mm 3 m/s 748 mmHg 28%
    22:00 +35°C° 0 mm 3 m/s 748 mmHg 27%
    23:00 +34°C° 0 mm 3 m/s 748 mmHg 26%

    29 Iulie, Sâmbătă

    Timp Temperatura Precipitaţii Vânt Presiune Umiditate
    00:00 +34°C° 0 mm 3 m/s 748 mmHg 26%
    01:00 +34°C° 0 mm 3 m/s 748 mmHg 27%
    02:00 +33°C° 0 mm 3 m/s 747 mmHg 28%
    03:00 +33°C° 0 mm 3 m/s 747 mmHg 28%
    04:00 +34°C° 0 mm 3 m/s 747 mmHg 29%
    05:00 +34°C° 0 mm 3 m/s 747 mmHg 29%
    06:00 +34°C° 0 mm 3 m/s 748 mmHg 30%
    07:00 +36°C° 0 mm 3 m/s 748 mmHg 28%
    08:00 +37°C° 0 mm 2 m/s 748 mmHg 26%
    09:00 +39°C° 0 mm 2 m/s 749 mmHg 24%
    10:00 +40°C° 0 mm 2 m/s 748 mmHg 24%
    11:00 +42°C° 0 mm 3 m/s 748 mmHg 24%
    12:00 +42°C° 0 mm 3 m/s 748 mmHg 23%
    13:00 +42°C° 0 mm 3 m/s 748 mmHg 25%
    14:00 +42°C° 0 mm 3 m/s 748 mmHg 27%
    15:00 +42°C° 0 mm 3 m/s 747 mmHg 28%
    16:00 +40°C° 0 mm 2 m/s 747 mmHg 32%
    17:00 +38°C° 0 mm 2 m/s 747 mmHg 35%
    18:00 +36°C° 0 mm 1 m/s 747 mmHg 39%
    19:00 +35°C° 0 mm 1 m/s 748 mmHg 42%
    20:00 +34°C° 0 mm 1 m/s 748 mmHg 45%
    21:00 +30°C° 0 mm 0 m/s 748 mmHg 49%
    22:00 +32°C° 0 mm 1 m/s 748 mmHg 48%
    23:00 +32°C° 0 mm 1 m/s 748 mmHg 48%

    30 Iulie, Duminică

    Timp Temperatura Precipitaţii Vânt Presiune Umiditate
    00:00 +32°C° 0 mm 1 m/s 748 mmHg 48%
    01:00 +31°C° 0 mm 1 m/s 747 mmHg 49%
    02:00 +31°C° 0 mm 2 m/s 747 mmHg 51%
    03:00 +30°C° 0 mm 2 m/s 747 mmHg 53%
    04:00 +30°C° 0 mm 2 m/s 747 mmHg 53%
    05:00 +31°C° 0 mm 2 m/s 747 mmHg 53%
    06:00 +31°C° 0 mm 2 m/s 748 mmHg 54%
    07:00 +34°C° 0 mm 2 m/s 748 mmHg 47%
    08:00 +35°C° 0 mm 2 m/s 748 mmHg 40%
    09:00 +37°C° 0 mm 2 m/s 748 mmHg 33%
    10:00 +38°C° 0 mm 3 m/s 748 mmHg 30%
    11:00 +40°C° 0 mm 3 m/s 748 mmHg 27%
    12:00 +42°C° 0 mm 3 m/s 747 mmHg 24%
    13:00 +42°C° 0 mm 3 m/s 747 mmHg 25%
    14:00 +40°C° 0 mm 3 m/s 747 mmHg 26%
    15:00 +40°C° 0 mm 3 m/s 746 mmHg 26%
    16:00 +39°C° 0 mm 3 m/s 746 mmHg 29%
    17:00 +38°C° 0 mm 2 m/s 746 mmHg 31%
    18:00 +37°C° 0 mm 2 m/s 746 mmHg 34%
    19:00 +36°C° 0 mm 2 m/s 746 mmHg 37%
    20:00 +35°C° 0 mm 2 m/s 747 mmHg 40%
    21:00 +32°C° 0 mm 2 m/s 747 mmHg 42%
    22:00 +34°C° 0 mm 2 m/s 746 mmHg 41%
    23:00 +34°C° 0 mm 2 m/s 746 mmHg 41%

    31 Iulie, Luni

    Timp Temperatura Precipitaţii Vânt Presiune Umiditate
    00:00 +34°C° 0 mm 3 m/s 746 mmHg 40%
    01:00 +34°C° 0 mm 2 m/s 745 mmHg 38%
    02:00 +34°C° 0 mm 2 m/s 745 mmHg 37%
    03:00 +34°C° 0 mm 2 m/s 745 mmHg 35%
    04:00 +34°C° 0 mm 2 m/s 745 mmHg 34%
    05:00 +34°C° 0 mm 2 m/s 745 mmHg 33%
    06:00 +35°C° 0 mm 2 m/s 745 mmHg 31%
    07:00 +37°C° 0 mm 3 m/s 745 mmHg 27%
    08:00 +39°C° 0 mm 3 m/s 745 mmHg 23%
    09:00 +42°C° 0 mm 3 m/s 745 mmHg 20%
    10:00 +44°C° 0 mm 3 m/s 745 mmHg 18%
    11:00 +45°C° 0 mm 4 m/s 745 mmHg 16%
    12:00 +47°C° 0 mm 4 m/s 744 mmHg 15%
    13:00 +47°C° 0 mm 4 m/s 744 mmHg 16%
    14:00 +47°C° 0 mm 4 m/s 744 mmHg 16%
    15:00 +47°C° 0 mm 4 m/s 744 mmHg 17%
    16:00 +45°C° 0 mm 4 m/s 744 mmHg 18%
    17:00 +44°C° 0 mm 4 m/s 744 mmHg 19%
    18:00 +43°C° 0 mm 4 m/s 744 mmHg 20%
    19:00 +42°C° 0 mm 4 m/s 745 mmHg 22%
    20:00 +40°C° 0 mm 3 m/s 745 mmHg 23%
    21:00 +39°C° 0 mm 2 m/s 746 mmHg 24%
    22:00 +38°C° 0 mm 3 m/s 746 mmHg 27%
    23:00 +37°C° 0 mm 4 m/s 746 mmHg 29%
    Arată mai mult